Location: Ballingbuur
(53.0000°N, 5.7667°E)
Time: 17:24:48
(UTC+00:00)

Meteor 2-3 Rocket - Visible Passes

Search period start: 16 April 2021 00:00
Search period end: 26 April 2021 00:00
Orbit: 842 x 885 km, 81.3° (Epoch: 15 April)

Date Brightness Start Highest point End Pass type
(mag) Time Alt. Az. Time Alt. Az. Time Alt. Az.
16 Apr 5.3 19:12:34 10° N 19:16:43 20° NE 19:20:50 10° E visible
16 Apr 3.7 20:55:01 10° NNW 21:00:52 86° ENE 21:03:54 30° SSE visible
16 Apr 5.8 22:39:26 10° NW 22:43:18 19° W 22:46:13 13° WSW visible
17 Apr 3.7 20:46:54 10° NNW 20:52:44 86° ENE 20:56:10 26° SSE visible
17 Apr 5.8 22:31:17 10° NW 22:35:11 19° W 22:38:28 12° WSW visible
18 Apr 3.7 20:38:46 10° NNW 20:44:36 85° ENE 20:48:26 22° SSE visible
18 Apr 5.9 22:23:09 10° NW 22:27:03 19° W 22:30:44 11° WSW visible
19 Apr 3.7 20:30:38 10° NNW 20:36:27 85° ENE 20:40:44 19° SSE visible
19 Apr 5.9 22:15:01 10° NW 22:18:55 19° W 22:22:47 10° SW visible
20 Apr 3.7 20:22:30 10° NNW 20:28:19 85° ENE 20:33:03 16° SSE visible
20 Apr 5.9 22:06:52 10° NW 22:10:47 19° W 22:14:40 10° SW visible
21 Apr 3.8 20:14:22 10° NNW 20:20:11 84° ENE 20:25:24 13° SSE visible
21 Apr 5.9 21:58:44 10° NW 22:02:39 19° W 22:06:32 10° SW visible
22 Apr 3.8 20:06:14 10° NNW 20:12:03 84° ENE 20:17:45 10° SSE visible
22 Apr 5.9 21:50:35 10° NW 21:54:31 19° W 21:58:26 10° SW visible
23 Apr 3.8 19:58:07 10° NNW 20:03:55 83° ENE 20:09:37 10° SSE visible
23 Apr 6.0 21:42:26 10° NW 21:46:23 19° W 21:50:18 10° SW visible
24 Apr 3.8 19:49:58 10° NNW 19:55:47 83° ENE 20:01:28 10° SSE visible
24 Apr 6.0 21:34:18 10° NW 21:38:16 19° W 21:42:11 10° SW visible
25 Apr 3.8 19:41:50 10° NNW 19:47:38 82° ENE 19:53:19 10° SSE visible
25 Apr 6.0 21:26:10 10° NW 21:30:08 20° W 21:34:03 10° SW visible
